Погода в Гуаяме

Пуэрто-Рико     17°59′04″N   66°06′50″W
темп.,
°C
ветер,
м/с
пор.,
м/с
влажн.,
%
обл.,
%
осадки,
мм/ч
давл.,
гПа
погр.,
м
11 апреля, вс
вс1123:00+20с34764 0.0 1016242
02:00+19с237952 0.0 101491
05:00+18с238017 0.0 101489
08:00+22ссв256787 0.0 1015581
11:00+26в445846 0.1 10151378
14:00+26в5453100 0.1 10131268
17:00+24в455917 0.0 10121028
20:00+21всв35745 0.0 1014350
12 апреля, пн
пн1223:00+20всв357717 0.0 1014389
02:00+21св2474100 0.0 1014408
05:00+22всв2468100 0.1 1014408
08:00+24вюв3463100 0.1 10161204
11:00+26юв435228 0.0 10151148
14:00+27юв33517 0.0 1013978
17:00+25юв325959 0.0 1012746
20:00+22в23787 0.0 1014205
13 апреля, вт
вт1323:00+21всв1282100 0.0 1015217
02:00+22в1284100 0.0 1013202
05:00+22всв0184100 0.0 1013116
08:00+25вюв127673 0.1 1015454
11:00+28юв3364100 0.1 10151199
14:00+28ю4465100 0.1 1013909
17:00+26ююв2170100 0.1 1012601
20:00+24св2286100 0.1 1014164
14 апреля, ср
ср1423:00+22с2288100 0.0 101596
02:00+22с2289100 0.0 101463
05:00+21с229198 0.0 101470
08:00+25ссв2276100 0.0 1015331
11:00+28в335862 0.0 10151283
14:00+28в446475 0.2 1014968
17:00+26в336599 0.4 1013625
20:00+23с3477100 0.4 1014170
15 апреля, чт
чт1523:00+22с2386100 0.0 101594
02:00+21с239199 0.0 101396
05:00+21ссв229236 0.0 101499
08:00+24св237731 0.0 1015386
11:00+28в43595 0.0 10151062
14:00+28вюв545810 0.0 1013811
17:00+26в446620 0.0 1013694
20:00+23всв34823 0.0 1015240